This demonstration page uses our WeatherBlox Daily Observations layout. Learn more.

Left ArrowRight Arrow

Hourly Observations for January 18, 2016

Temp ( °F °C ) Dew Point ( °F °C ) Humidity (%) Winds ( mph kmh ) Pressure ( in mb ) Visibility ( mi km ) Precip ( " mm )
12:53 am 00:53 Clear 6 -14.4 -1 -18.3 73 73 Calm 30.42 1030 10 16 0.00 0.00
1:53 am 01:53 Clear 4 -15.6 -3 -19.4 73 73 Calm 30.41 1030 10 16 0.00 0.00
2:53 am 02:53 Clear 4 -15.6 -3 -19.4 73 73 Calm 30.40 1030 10 16 0.00 0.00
3:53 am 03:53 Clear 5 -15 -1 -18.3 76 76 Calm 30.39 1029 10 16 0.00 0.00
4:53 am 04:53 Clear 3 -16.1 -3 -19.4 76 76 ENE 3 6 30.38 1029 10 16 0.00 0.00
5:53 am 05:53 Partly Cloudy 3 -16.1 -2 -18.9 79 79 Calm 30.40 1029 10 16 0.00 0.00
6:53 am 06:53 Mostly Cloudy 7 -13.9 1 -17.2 76 76 SE 5 7 30.39 1029 10 16 0.00 0.00
7:53 am 07:53 Partly Cloudy 9 -12.8 3 -16.1 77 77 SE 7 11 30.38 1029 10 16 0.00 0.00
8:32 am 08:32 Mostly Cloudy 10 -12 3 -16 72 72 SSE 6 9 30.45 1031 10 16 0.00 0.00
8:53 am 08:53 Cloudy 12 -11.1 6 -14.4 77 77 SSE 8 13 30.38 1029 10 16 0.00 0.00
9:53 am 09:53 Cloudy 14 -10 9 -12.8 80 80 S 6 9 30.38 1029 10 16 0.00 0.00
10:20 am 10:20 Partly Cloudy 17 -8.3 11 -11.7 77 77 S 6 9 30.39 1029 10 16 0.00 0.00
10:53 am 10:53 Sunny 20 -6.7 13 -10.6 74 74 S 7 11 30.36 1028 10 16 0.00 0.00
11:53 am 11:53 Mostly Cloudy 24 -4.4 14 -10 65 65 SSW 10 17 30.32 1027 10 16 0.00 0.00
12:53 pm 12:53 Mostly Cloudy 27 -2.8 15 -9.4 61 61 SSW 12 19 30.28 1025 10 16 0.00 0.00
1:30 pm 13:30 Partly Cloudy 27 -3 14 -10 59 59 S 12 19 30.24 1024 10 16 0.00 0.00
1:53 pm 13:53 Sunny 28 -2.2 14 -10 56 56 S 10 17 30.24 1024 10 16 0.00 0.00
2:53 pm 14:53 Sunny 29 -1.7 14 -10 54 54 S 12 19 30.22 1023 10 16 0.00 0.00
3:53 pm 15:53 Sunny 30 -1.1 14 -10 51 51 S 12 19 30.19 1022 10 16 0.00 0.00
4:53 pm 16:53 Partly Cloudy 29 -1.7 14 -10 54 54 S 10 17 30.19 1023 10 16 0.00 0.00
5:53 pm 17:53 Mostly Cloudy 27 -2.8 15 -9.4 61 61 S 7 11 30.21 1023 10 16 0.00 0.00
6:53 pm 18:53 Cloudy 27 -2.8 14 -10 58 58 SSE 8 13 30.20 1023 10 16 0.00 0.00
7:53 pm 19:53 Mostly Cloudy 26 -3.3 13 -10.6 57 57 SE 10 17 30.21 1023 10 16 0.00 0.00
8:53 pm 20:53 Cloudy 25 -3.9 12 -11.1 58 58 SSE 13 20 30.19 1022 10 16 0.00 0.00
9:53 pm 21:53 Cloudy 25 -3.9 12 -11.1 58 58 SSE 10 17 30.19 1022 10 16 0.00 0.00
10:53 pm 22:53 Cloudy 25 -3.9 13 -10.6 60 60 SSE 12 19 30.19 1022 10 16 0.00 0.00
11:53 pm 23:53 Cloudy 25 -3.9 13 -10.6 60 60 SSE 8 13 30.22 1024 10 16 0.00 0.00

Powered by AerisWeather